AirNav   Air Wisconsin pilot careers
 
 302 users online  

2A8 Addison Municipal Airport
Addison, Alabama, USA

GOING TO ADDISON?


FAA INFORMATION EFFECTIVE 12 SEPTEMBER 2019

Location

FAA Identifier: 2A8
Lat/Long: 34-13-01.7100N 087-09-29.3700W
34-13.028500N 087-09.489500W
34.2171417,-87.1581583
(estimated)
Elevation: 786 ft. / 240 m (estimated)
Variation: 00E (1980)
From city: 1 mile NE of ADDISON, AL
Time zone: UTC -5 (UTC -6 during Standard Time)
Zip code: 35540

Airport Operations

Airport use: Open to the public
Activation date: 12/1986
Control tower: no
ARTCC: MEMPHIS CENTER
FSS: ANNISTON FLIGHT SERVICE STATION
NOTAMs facility: ANB (NOTAM-D service available)
Attendance: UNATNDD
Wind indicator: yes
Segmented circle: no

Airport Communications

CTAF: 122.9
WX AWOS-3PT at CMD (15 nm E): 124.175 (256-775-7476)

Nearby radio navigation aids

VOR radial/distance  VOR name  Freq  Var
DCUr204/28.0DECATUR VOR/DME112.8001W
MSLr150/33.7MUSCLE SHOALS VORTAC116.5001E
VUZr337/35.2VULCAN VORTAC114.4002E

 
NDB name  Hdg/Dist  Freq  Var  ID
REDSTONE223/37.128704WHUA .... ..- .-

Airport Services

Parking: tiedowns

Runway Information

Runway 5/23

Dimensions: 2644 x 112 ft. / 806 x 34 m
Surface: turf, in good condition
Runway edge markings: MKD BY WHITE CONES WITH BLACK TIPS.
Gradient: SW
RUNWAY 5  RUNWAY 23
Latitude: 34-12.885000N34-13.172000N
Longitude: 087-09.687000W087-09.292000W
Elevation: 786.0 ft.776.0 ft.
Traffic pattern: leftleft
Runway heading: 049229
Markings: NSTDNSTD
Obstructions: 32 ft. trees, 585 ft. from runway, 58 ft. left of centerline, 18:1 slope to clear25 ft. trees, 641 ft. from runway, 27 ft. right of centerline, 25:1 slope to clear

Airport Ownership and Management from official FAA records

Ownership: Publicly-owned
Owner: CITY OF ADDISON
PO BOX 98
ADDISON, AL 35540
Phone 205-747-2971
Manager: RONNY JENKINS
P O BOX 177
ADDISON, AL 35540
Phone 256-565-8202

Airport Operational Statistics

Aircraft based on the field: 4
Single engine airplanes: 4
    
Aircraft operations: avg 27/week *
85% transient general aviation
15% local general aviation
* for 12-month period ending 01 February 2019

Additional Remarks

FOR CD CTC MEMPHIS ARTCC AT 901-368-8453.

Instrument Procedures

There are no published instrument procedures at 2A8.

Some nearby airports with instrument procedures:

KCMD - Cullman Regional Airport-Folsom Field (15 nm E)
5M0 - Hartselle-Morgan County Regional Airport (16 nm NE)
KJFX - Walker County Airport-Bevill Field (20 nm S)
1M4 - Posey Field Airport (22 nm W)
9A4 - Courtland Airport (28 nm N)
 
Loc | Ops | Rwys | IFR | FBO | Links
Com | Nav | Svcs | Stats | Notes
Area around 2A8 (Addison Municipal Airport)
 
Road maps at: MapQuest Bing Google
 
Aerial photo
No photo
 
Sectional chart

 
Airport distance calculator
Flying to Addison Municipal Airport? Find the distance to fly.

From to 2A8

Sunrise and sunset
Times for 23-Sep-2019
 Local
(UTC-5)
 Zulu
(UTC)
Morning civil twilight06:1311:13
Sunrise06:3811:38
Sunset18:4423:44
Evening civil twilight19:0900:09

Current date and time
Zulu (UTC)  23-Sep-2019 06:53:30
Local (UTC-5)  23-Sep-2019 01:53:30
 
METAR
KCMD 
15nm E 
230635Z AUTO 00000KT 10SM CLR 16/14 A3013 RMK AO2 T01590138
KJFX 
20nm S 
230635Z AUTO 10SM CLR 15/15 A3009 RMK AO2
K1M4 
22nm W 
230556Z AUTO 00000KT 10SM CLR 17/14 A3012 RMK AO2 SLP584 T01670144 10250 20167 58008
KDCU 
28nm N 
230553Z AUTO 00000KT 10SM CLR 18/15 A3009 RMK AO2 SLP183 T01830150 10278 20183 403280144 58004
TAF
KHSV 
32nm NE 
230520Z 2306/2406 VRB03KT P6SM SKC FM231600 27010G18KT P6SM FEW080 FM232000 27010KT P6SM VCSH OVC050
KMSL 
39nm NW 
230520Z 2306/2406 VRB03KT P6SM FEW250 FM231700 27010G19KT P6SM FEW090 FM232200 28007KT P6SM VCSH OVC060
NOTAMs
Click for the latest NOTAMs
NOTAMs are issued by the DoD/FAA and will open in a separate window not controlled by AirNav.

 

 
 

Would you like to see your business listed on this page?

 If your business provides an interesting product or service to pilots, flight crews, aircraft, or users of the Addison Municipal Airport, you should consider listing it here.  To start the listing process, click on the button below
 
Add a business
 

Other Pages about Addison Municipal Airport

Update a link
 
Copyright © AirNav, LLC. All rights reserved. Privacy Policy  Contact